Cumberland, WV

5:00 PM EST on November 21, 2017 (GMT -0500)
Greater Cumberland Regional

Weather History for KCBE - March, 2013

Change the Weather History Date:

Saturday, March 9, 2013

  Actual Average (KMRB) Record (KMRB)
Temperature  
Mean Temperature 40 °F -  
Max Temperature 55 °F 51 °F 81 °F (2000)
Min Temperature 26 °F 29 °F 3 °F (1960)
Degree Days  
Heating Degree Days 24    
Moisture  
Dew Point 28 °F    
Average Humidity 68    
Maximum Humidity 100    
Minimum Humidity 33    
Precipitation  
Precipitation 0.00 in - - ()
Sea Level Pressure  
Sea Level Pressure 30.35 in    
Wind  
Wind Speed 2 mph (WNW)    
Max Wind Speed 6 mph    
Max Gust Speed -    
Visibility 10 miles    
Events      
Averages and records for this station are not official NWS values.
T = Trace of Precipitation, MM = Missing Value Source: NWS Daily Summary

Daily Weather History Graph

Daily Weather History Graph

Search for Another Location

Airport or City:

Trip Planner

Search our weather history database for the weather conditions in past years. The results will help you decide how hot, cold, wet, or windy it might be!

Date:

Astronomy

Mar. 09, 2013 Rise Set
Actual Time 6:35 AM EST 6:16 PM EST
Civil Twilight 6:08 AM EST 6:42 PM EST
Nautical Twilight 5:37 AM EST 7:14 PM EST
Astronomical Twilight 5:06 AM EST 7:45 PM EST
Moon 4:58 AM EST (3/9) 4:16 PM EST (3/9)
Length of Visible Light 12h 34m
Length of Day
11h 40m
Waning Crescent, 5% of the Moon is Illuminated
Mar 9
Waning Crescent
Mar 11
New
Mar 19
First Quarter
Mar 27
Full
Apr 3
Last Quarter

Hourly Weather History & Observations

Time (EST) Temp. Windchill Dew Point Humidity Pressure Visibility Wind Dir Wind Speed Gust Speed Precip Events Conditions
12:13 AM 33.8 °F 30.8 °F 28.4 °F 81% 30.38 in 10.0 mi North 3.5 mph - N/A   Clear
12:33 AM 33.8 °F 29.6 °F 28.4 °F 81% 30.38 in 10.0 mi NNW 4.6 mph - N/A   Clear
12:54 AM 33.8 °F 30.8 °F 28.4 °F 81% 30.39 in 10.0 mi NW 3.5 mph - N/A   Clear
1:14 AM 33.8 °F 30.8 °F 28.4 °F 81% 30.40 in 10.0 mi NNW 3.5 mph - N/A   Clear
1:34 AM 32.0 °F 28.7 °F 28.4 °F 87% 30.40 in 10.0 mi North 3.5 mph - N/A   Clear
1:54 AM 32.0 °F 28.7 °F 28.4 °F 87% 30.40 in 10.0 mi North 3.5 mph - N/A   Clear
2:14 AM 32.0 °F - 28.4 °F 87% 30.39 in 10.0 mi Calm Calm - N/A   Clear
2:34 AM 32.0 °F - 28.4 °F 87% 30.39 in 10.0 mi Calm Calm - N/A   Clear
2:54 AM 32.0 °F - 28.4 °F 87% 30.37 in 10.0 mi Calm Calm - N/A   Clear
3:14 AM 28.4 °F - 26.6 °F 93% 30.38 in 10.0 mi Calm Calm - N/A   Clear
3:34 AM 28.4 °F - 28.4 °F 100% 30.37 in 10.0 mi Calm Calm - N/A   Clear
3:54 AM 28.4 °F - 26.6 °F 93% 30.37 in 10.0 mi Calm Calm - N/A   Clear
4:14 AM 28.4 °F - 28.4 °F 100% 30.37 in 10.0 mi Calm Calm - N/A   Clear
4:34 AM 28.4 °F - 28.4 °F 100% 30.38 in 10.0 mi Calm Calm - N/A   Clear
4:54 AM 26.6 °F - 26.6 °F 100% 30.39 in 10.0 mi Calm Calm - N/A   Clear
5:14 AM 26.6 °F - 26.6 °F 100% 30.39 in 10.0 mi Calm Calm - N/A   Clear
5:34 AM 26.6 °F - 26.6 °F 100% 30.39 in 7.0 mi Calm Calm - N/A   Clear
5:54 AM 26.6 °F - 26.6 °F 100% 30.40 in 7.0 mi Calm Calm - N/A   Clear
6:14 AM 26.6 °F - 26.6 °F 100% 30.40 in 10.0 mi Calm Calm - N/A   Clear
6:34 AM 26.6 °F - 26.6 °F 100% 30.40 in 7.0 mi Calm Calm - N/A   Clear
6:54 AM 26.6 °F - 26.6 °F 100% 30.40 in 5.0 mi Calm Calm - N/A   Clear
7:14 AM 26.6 °F - 26.6 °F 100% 30.41 in 3.0 mi Calm Calm - N/A   Clear
7:34 AM 26.6 °F - 26.6 °F 100% 30.41 in 5.0 mi Calm Calm - N/A   Clear
7:54 AM 28.4 °F - 28.4 °F 100% 30.42 in 7.0 mi Calm Calm - N/A   Clear
8:14 AM 30.2 °F - 30.2 °F 100% 30.43 in 7.0 mi Calm Calm - N/A   Clear
8:34 AM 32.0 °F - 30.2 °F 93% 30.43 in 10.0 mi Calm Calm - N/A   Clear
8:54 AM 33.8 °F - 30.2 °F 87% 30.43 in 10.0 mi Calm Calm - N/A   Clear
9:14 AM 33.8 °F - 30.2 °F 87% 30.43 in 10.0 mi Calm Calm - N/A   Clear
9:35 AM 35.6 °F - 30.2 °F 81% 30.43 in 10.0 mi Calm Calm - N/A   Clear
9:55 AM 37.4 °F - 30.2 °F 75% 30.42 in 10.0 mi Calm Calm - N/A   Clear
10:15 AM 39.2 °F - 30.2 °F 70% 30.41 in 10.0 mi Calm Calm - N/A   Clear
10:35 AM 41.0 °F - 30.2 °F 65% 30.41 in 10.0 mi Calm Calm - N/A   Clear
10:55 AM 42.8 °F - 30.2 °F 61% 30.40 in 10.0 mi Calm Calm - N/A   Clear
11:15 AM 44.6 °F - 30.2 °F 57% 30.40 in 10.0 mi Calm Calm - N/A   Clear
11:35 AM 44.6 °F - 30.2 °F 57% 30.39 in 10.0 mi Calm Calm - N/A   Clear
11:55 AM 46.4 °F - 28.4 °F 50% 30.39 in 10.0 mi Calm Calm - N/A   Clear
12:15 PM 46.4 °F - 28.4 °F 50% 30.37 in 10.0 mi Calm Calm - N/A   Clear
12:35 PM 50.0 °F - 30.2 °F 47% 30.36 in 10.0 mi Calm Calm - N/A   Clear
12:55 PM 50.0 °F - 28.4 °F 43% 30.35 in 10.0 mi Calm Calm - N/A   Clear
1:15 PM 50.0 °F - 28.4 °F 43% 30.34 in 10.0 mi Calm Calm - N/A   Clear
1:35 PM 51.8 °F - 28.4 °F 41% 30.33 in 10.0 mi WNW 3.5 mph - N/A   Clear
1:55 PM 51.8 °F - 30.2 °F 44% 30.33 in 10.0 mi WNW 4.6 mph - N/A   Clear
2:15 PM 53.6 °F - 30.2 °F 41% 30.32 in 10.0 mi Calm Calm - N/A   Clear
2:35 PM 53.6 °F - 30.2 °F 41% 30.32 in 10.0 mi WNW 4.6 mph - N/A   Clear
2:55 PM 55.4 °F - 32.0 °F 41% 30.32 in 10.0 mi SSW 4.6 mph - N/A   Clear
3:15 PM 55.4 °F - 30.2 °F 38% 30.31 in 10.0 mi South 3.5 mph - N/A   Clear
3:35 PM 55.4 °F - 28.4 °F 36% 30.30 in 10.0 mi South 5.8 mph - N/A   Clear
3:55 PM 55.4 °F - 26.6 °F 33% 30.30 in 10.0 mi South 4.6 mph - N/A   Clear
4:15 PM 55.4 °F - 28.4 °F 36% 30.30 in 10.0 mi ESE 3.5 mph - N/A   Clear
4:35 PM 55.4 °F - 26.6 °F 33% 30.29 in 10.0 mi SSE 4.6 mph - N/A   Clear
4:55 PM 55.4 °F - 26.6 °F 33% 30.29 in 10.0 mi South 5.8 mph - N/A   Clear
5:15 PM 55.4 °F - 28.4 °F 36% 30.28 in 10.0 mi South 3.5 mph - N/A   Clear
5:35 PM 53.6 °F - 28.4 °F 38% 30.28 in 10.0 mi South 3.5 mph - N/A   Clear
5:55 PM 53.6 °F - 26.6 °F 35% 30.29 in 10.0 mi Calm Calm - N/A   Clear
6:15 PM 51.8 °F - 26.6 °F 38% 30.29 in 10.0 mi Calm Calm - N/A   Clear
6:36 PM 50.0 °F - 23.0 °F 35% 30.29 in 10.0 mi Calm Calm - N/A   Clear
6:56 PM 50.0 °F - 23.0 °F 35% 30.29 in 10.0 mi Calm Calm - N/A   Clear
7:16 PM 50.0 °F - 23.0 °F 35% 30.30 in 10.0 mi Calm Calm - N/A   Clear
7:36 PM 46.4 °F 45.2 °F 26.6 °F 46% 30.30 in 10.0 mi NNW 3.5 mph - N/A   Clear
7:56 PM 44.6 °F 42.2 °F 26.6 °F 49% 30.30 in 10.0 mi NW 4.6 mph - N/A   Clear
8:16 PM 44.6 °F 42.2 °F 28.4 °F 53% 30.30 in 10.0 mi North 4.6 mph - N/A   Clear
8:36 PM 42.8 °F - 26.6 °F 53% 30.30 in 10.0 mi Calm Calm - N/A   Clear
8:56 PM 41.0 °F - 28.4 °F 61% 30.30 in 10.0 mi Calm Calm - N/A   Clear
9:16 PM 41.0 °F - 28.4 °F 61% 30.31 in 10.0 mi Calm Calm - N/A   Clear
9:36 PM 37.4 °F - 28.4 °F 70% 30.31 in 10.0 mi Calm Calm - N/A   Clear
9:56 PM 39.2 °F - 28.4 °F 65% 30.32 in 10.0 mi Calm Calm - N/A   Clear
10:16 PM 37.4 °F - 28.4 °F 70% 30.32 in 10.0 mi Calm Calm - N/A   Clear
10:36 PM 35.6 °F - 28.4 °F 75% 30.31 in 10.0 mi Calm Calm - N/A   Clear
10:56 PM 35.6 °F - 28.4 °F 75% 30.31 in 10.0 mi Calm Calm - N/A   Clear
11:16 PM 35.6 °F - 28.4 °F 75% 30.31 in 10.0 mi Calm Calm - N/A   Clear
11:36 PM 33.8 °F - 28.4 °F 81% 30.31 in 10.0 mi Calm Calm - N/A   Clear
11:56 PM 32.0 °F - 28.4 °F 87% 30.31 in 10.0 mi Calm Calm - N/A   Clear